Starlink 35604

operational
NORAD ID: 66802 Int'l Des: 2025-278 Owner: SPXS Country: US Constellation: starlink
LEOCIRCULAR

Über Starlink 35604

Beschreibung wird geladen...

Live-Position

3D-Globus wird geladen...

Nächste Überflüge

Höhenverlauf

Altitude vs Time

uPlot chart will show altitude changes over time

Zweizeiliger Elementsatz

1 66802U 25278M 25346.79433121 -.02036200 00000-0 -82672-2 0 9998
2 66802 42.9971 251.7403 0002492 313.5703 46.4964 15.88185477 1847
Epoch: 12. Dez. 2025 • Age: 30 hours

Aktueller Status

Höhe 318.8 km
Geschwindigkeit 7.72 km/s
Subsatellitenpunkt 9.56°N, 150.94°E
Startdatum 1. Dez. 2025
Alter 12 days
Typ internet

Technische Details

Klassifizierung Payload
Masse 575.00 kg
Trockenmasse 530.00 kg
Gesamtmasse 575.00 kg
Länge 0.30 m
Durchmesser 4.10 m
Spannweite 29.00 m
Form Box + pan
Hersteller SPXS
Bus-Typ Starlink V2MO
Phasenstatus In Orbit
Besitzer/Staat SPXS/US

Große Konstellationen

Loading constellations...